CAPE
0 0 0 0 0 0 0 0 0 0 0 0 0 0 0 0 0 0 0 0 0 0 0 0 0 0 0 0 0 0 0 223 757 1314 1318 1295 1234 1098 1050 917 734 1011 885 1003
0 0 0 0 0 0 0 0 0 0 0 0 0 0 0 0 0 0 0 0 0 0 0 0 0 0 0 0 0 0 0 0 0 880 1349 1175 1024 927 923 878 728 408 1099 1497
0 0 0 0 0 0 0 0 0 0 0 0 0 0 0 0 0 0 0 0 0 0 0 0 0 0 0 0 0 0 0 0 0 1 936 1559 1285 1106 672 721 777 694 423 694
0 0 0 0 0 0 0 0 0 0 0 0 0 0 0 0 0 0 0 0 0 0 0 0 0 0 0 0 0 0 0 0 0 0 5 718 1350 1182 969 856 483 442 568 508
0 0 0 0 0 0 0 0 0 0 0 0 0 0 0 0 0 0 0 0 0 0 0 0 0 0 0 0 0 0 0 0 0 0 0 0 168 569 727 888 637 872 713 369
0 0 0 0 0 0 0 0 0 0 0 0 0 0 0 0 0 0 0 0 0 0 0 0 0 0 0 0 0 0 0 0 0 0 0 0 0 66 238 335 504 612 831 842
0 0 0 0 0 0 0 0 0 0 0 0 0 0 0 0 0 0 0 0 0 0 0 0 0 0 0 0 0 0 0 0 0 0 0 0 0 0 4 65 97 106 239 279
0 0 0 0 0 0 0 0 0 0 0 0 0 0 0 0 0 0 0 0 0 0 0 0 0 0 0 0 0 0 0 0 0 0 0 0 0 24 42 61 16 0 1 2
0 0 0 0 0 0 0 0 1 0 1 6 0 0 0 0 0 5 35 2 0 0 0 0 0 0 0 0 0 0 0 0 0 0 0 0 0 0 2 15 46 29 53 136
0 0 0 0 0 0 6 25 9 3 0 0 0 0 0 0 0 0 0 0 0 0 0 0 0 0 0 0 0 0 0 0 0 0 0 0 0 0 0 38 73 84 89 99
0 0 0 0 0 0 4 9 9 5 10 0 0 0 16 8 0 1 0 0 0 0 0 0 0 0 0 0 0 0 0 0 0 0 0 0 0 0 2 29 218 397 295 375
0 0 0 0 0 0 17 27 15 12 3 8 0 0 0 0 0 0 0 1 0 0 0 0 0 0 0 0 0 0 0 0 0 0 0 0 0 0 0 0 0 1 0 13
0 0 0 0 0 0 10 7 3 4 0 0 0 0 0 0 0 0 0 0 5 0 0 0 0 0 0 0 0 0 0 0 0 0 0 0 0 0 0 0 0 0 0 0
0 0 0 0 0 0 0 2 8 5 0 0 0 0 0 0 0 0 0 0 11 10 0 0 0 0 0 0 0 0 0 0 0 0 0 0 0 0 0 0 0 0 0 0
0 0 0 0 0 0 0 0 0 4 0 0 0 0 0 0 0 0 0 0 13 2 1 1 0 0 0 0 0 0 0 0 0 0 0 0 0 0 0 0 0 0 0 0
0 0 0 0 0 0 0 0 0 0 0 5 2 1 0 0 0 0 0 0 16 28 37 18 0 0 0 0 0 0 0 0 0 0 0 0 0 0 0 0 0 0 0 0
0 0 0 0 0 0 0 0 0 1 0 4 3 1 0 0 0 0 0 0 0 0 0 0 0 0 0 0 0 0 0 0 0 0 0 0 0 0 0 0 0 0 0 0
0 0 0 0 0 0 0 16 45 29 22 11 1 0 2 0 0 0 0 0 0 0 0 0 0 0 0 0 0 0 0 0 0 0 0 0 0 0 0 0 0 0 0 0
0 0 0 0 0 0 0 6 3 0 0 0 0 0 0 0 0 0 3 0 0 0 0 0 0 0 0 0 0 0 0 0 0 0 0 0 0 0 0 0 0 0 0 0
0 0 0 0 0 0 1 0 0 0 0 0 0 0 0 0 0 0 0 0 0 0 0 0 0 0 0 0 0 0 0 0 0 0 0 0 0 0 0 0 0 0 0 0
0 1 0 0 0 0 0 0 0 0 0 0 0 0 0 0 0 0 0 0 0 0 0 0 0 0 0 0 0 0 0 0 0 0 0 0 0 0 0 0 0 0 0 0
0 0 0 0 0 0 0 0 0 0 0 0 0 0 1 2 0 0 2 0 1 0 0 0 0 0 0 0 0 0 0 0 0 0 0 0 0 0 0 0 0 0 0 0
8 8 3 0 0 0 0 0 0 0 1 0 1 1 6 7 7 6 6 9 0 0 0 0 0 5 0 1 6 4 0 0 0 0 0 0 0 0 0 0 0 0 0 0
0 0 0 0 0 0 0 0 0 0 0 0 1 8 4 1 0 1 0 2 2 4 11 5 10 1 2 2 1 0 0 0 5 2 3 2 1 0 0 0 0 0 0 2
0 0 0 0 0 0 0 0 0 0 0 1 4 3 6 4 4 0 0 2 7 6 8 8 14 6 5 5 7 0 1 0 0 0 1 4 7 2 0 0 0 2 6 13
0 0 1 2 0 2 1 1 0 2 1 4 3 4 2 10 8 6 2 4 11 10 7 5 8 4 2 2 1 0 0 4 2 1 0 1 4 5 8 6 1 0 0 7
CIN
-0 -0 -0 -0 -0 -0 -0 -0 -0 -0 -0 -0 -0 -0 -0 -0 -0 -0 -0 -0 -0 -0 -0 -0 -0 -0 -0 -0 -0 -0 -1 -222 -166 -117 -108 -95 -60 -78 -110 -163 -158 -114 -185 -148
-0 -0 -0 -0 -0 -0 -0 -0 -0 -0 -0 -0 -0 -0 -0 -0 -0 -0 -0 -0 -0 -0 -0 -0 -0 -0 -0 -0 -0 -0 -0 -0 -0 -181 -150 -126 -122 -109 -100 -111 -156 -125 -99 -76
-0 -0 -0 -0 -0 -0 -0 -0 -0 -0 -0 -0 -0 -0 -0 -0 -0 -0 -0 -0 -0 -0 -0 -0 -0 -0 -0 -0 -0 -0 -0 -0 -0 -9 -223 -129 -128 -98 -102 -85 -97 -136 -140 -66
-0 -0 -0 -0 -0 -0 -0 -0 -0 -0 -0 -0 -0 -0 -0 -0 -0 -0 -0 -0 -0 -0 -0 -0 -0 -0 -0 -0 -0 -0 -0 -0 -0 -0 -157 -179 -82 -56 -59 -88 -116 -108 -109 -105
-0 -0 -0 -0 -0 -0 -0 -0 -0 -0 -0 -0 -0 -0 -0 -0 -0 -0 -0 -0 -0 -0 -0 -0 -0 -0 -0 -0 -0 -0 -0 -0 -0 -0 -0 -0 -263 -171 -136 -68 -43 -49 -66 -71
-0 -0 -0 -0 -0 -0 -0 -0 -0 -0 -0 -0 -0 -0 -0 -0 -0 -0 -0 -0 -0 -0 -0 -0 -0 -0 -0 -0 -0 -0 -0 -0 -0 -0 -0 -0 -0 -241 -174 -150 -97 -78 -95 -85
-0 -0 -0 -0 -0 -0 -0 -0 -0 -0 -0 -0 -0 -0 -0 -0 -0 -0 -0 -0 -0 -0 -0 -0 -0 -0 -0 -0 -0 -0 -0 -0 -0 -0 -0 -0 -0 -0 -105 -214 -188 -147 -132 -145
-0 -0 -0 -0 -0 -0 -0 -0 -0 -0 -0 -0 -0 -0 -0 -0 -0 -0 -0 -0 -0 -0 -0 -0 -0 -0 -0 -0 -0 -0 -0 -0 -0 -0 -0 -0 -0 -270 -264 -226 -252 -0 -151 -29
-0 -0 -0 -0 -0 -0 -0 -0 -61 -1 -35 -14 -0 -0 -0 -0 -0 -82 -78 -42 -0 -0 -0 -0 -0 -0 -0 -0 -0 -0 -0 -0 -0 -0 -0 -0 -0 -0 -241 -268 -235 -242 -196 -139
-0 -0 -0 -0 -0 -0 -26 -38 -12 -18 -0 -0 -3 -0 -0 -0 -0 -0 -0 -0 -0 -0 -0 -0 -0 -0 -0 -0 -0 -0 -0 -0 -0 -0 -0 -0 -0 -0 -31 -172 -152 -133 -143 -157
-0 -0 -0 -0 -0 -0 -29 -17 -23 -22 -12 -0 -0 -0 -55 -57 -18 -32 -0 -0 -0 -0 -0 -0 -0 -0 -0 -0 -0 -0 -0 -0 -0 -0 -0 -0 -0 -0 -54 -133 -33 -20 -51 -55
-0 -0 -0 -0 -0 -0 -24 -20 -27 -15 -15 -13 -0 -0 -0 -0 -0 -0 -0 -110 -0 -0 -0 -0 -0 -0 -0 -0 -0 -0 -0 -0 -0 -0 -0 -0 -0 -0 -0 -0 -0 -10 -0 -176
-2 -0 -0 -0 -0 -0 -6 -10 -11 -17 -0 -0 -2 -0 -0 -0 -0 -0 -0 -17 -41 -0 -0 -0 -0 -0 -0 -0 -0 -0 -0 -0 -0 -0 -0 -0 -0 -0 -0 -0 -0 -0 -0 -0
-0 -0 -0 -0 -0 -0 -0 -3 -16 -21 -0 -0 -0 -0 -0 -0 -0 -0 -0 -0 -31 -29 -0 -0 -0 -0 -0 -0 -0 -0 -0 -0 -0 -0 -0 -0 -0 -0 -0 -0 -0 -0 -0 -0
-0 -0 -0 -0 -0 -0 -0 -0 -0 -11 -0 -0 -0 -0 -0 -0 -0 -0 -0 -0 -97 -69 -62 -18 -0 -0 -0 -0 -0 -0 -0 -0 -0 -0 -0 -0 -0 -0 -0 -0 -0 -0 -0 -0
-0 -0 -0 -0 -0 -0 -0 -0 -0 -0 -0 -16 -21 -22 -0 -1 -1 -0 -0 -1 -146 -156 -149 -122 -41 -0 -0 -0 -0 -0 -0 -0 -0 -0 -0 -0 -0 -0 -0 -0 -0 -0 -0 -0
-0 -0 -0 -0 -0 -0 -0 -0 -0 -7 -5 -48 -37 -0 -0 -2 -0 -0 -0 -92 -17 -0 -0 -0 -0 -0 -0 -0 -0 -0 -0 -0 -0 -0 -0 -0 -0 -0 -0 -0 -0 -0 -0 -0
-0 -0 -0 -0 -0 -0 -0 -31 -22 -37 -29 -64 -0 -0 -0 -0 -0 -0 -0 -0 -0 -0 -0 -0 -0 -0 -0 -0 -0 -0 -0 -0 -0 -0 -0 -0 -0 -0 -0 -0 -0 -0 -0 -0
-0 -0 -0 -0 -0 -0 -0 -37 -33 -8 -7 -0 -0 -0 -0 -0 -0 -0 -5 -0 -0 -0 -0 -0 -0 -0 -0 -0 -0 -0 -0 -0 -0 -0 -0 -0 -0 -0 -0 -0 -0 -0 -0 -0
-0 -0 -0 -0 -0 -0 -16 -0 -0 -1 -0 -0 -0 -0 -0 -0 -0 -0 -0 -0 -0 -0 -0 -0 -0 -0 -0 -0 -0 -0 -0 -0 -0 -0 -0 -0 -0 -0 -0 -0 -0 -0 -0 -0
-0 -5 -1 -0 -0 -0 -0 -0 -0 -4 -0 -0 -0 -0 -0 -0 -0 -0 -0 -0 -0 -0 -0 -0 -0 -0 -0 -0 -0 -0 -0 -0 -0 -0 -0 -0 -0 -0 -0 -0 -0 -0 -0 -0
-0 -0 -0 -0 -0 -0 -0 -0 -0 -0 -0 -0 -0 -0 -0 -0 -0 -0 -0 -1 -0 -0 -0 -0 -0 -0 -0 -0 -0 -0 -0 -0 -0 -0 -0 -0 -0 -0 -0 -0 -0 -0 -0 -0
-7 -2 -1 -0 -0 -0 -0 -0 -0 -0 -0 -0 -0 -0 -0 -1 -0 -0 -1 -1 -0 -0 -0 -1 -1 -0 -0 -0 -1 -1 -0 -0 -0 -0 -0 -0 -0 -0 -0 -0 -0 -0 -0 -0
-0 -0 -0 -0 -0 -0 -0 -0 -0 -0 -0 -0 -0 -0 -0 -0 -0 -0 -0 -0 -0 -0 -0 -0 -0 -1 -0 -1 -3 -0 -0 -0 -16 -14 -9 -14 -15 -0 -0 -0 -0 -0 -0 -0
-0 -0 -0 -0 -0 -0 -0 -0 -0 -0 -0 -0 -0 -1 -1 -0 -0 -0 -0 -0 -0 -0 -1 -0 -0 -0 -0 -0 -0 -0 -1 -0 -0 -0 -7 -9 -8 -9 -1 -0 -0 -9 -16 -25
-0 -0 -0 -0 -0 -0 -0 -0 -0 -0 -0 -0 -0 -0 -0 -0 -0 -1 -6 -0 -0 -0 -0 -0 -0 -0 -0 -0 -0 -0 -0 -1 -1 -0 -0 -2 -4 -1 -0 -7 -1 -1 -0 -37
Wind_Speed
16 17 18 13 14 15 25 30 38 41 36 36 38 40 46 42 40 43 40 37 40 39 32 27 25 23 20 18 16 16 16 18 21 26 30 32 33 31 29 31 36 37 31 31
19 18 12 17 19 21 24 28 34 37 34 34 42 45 48 46 40 37 32 31 31 31 24 23 20 18 20 19 19 18 18 18 19 25 30 31 32 33 34 31 27 33 30 35
13 17 21 23 24 26 27 28 34 37 33 33 39 46 48 49 40 38 32 30 30 29 24 23 21 20 20 21 21 21 20 20 21 21 27 29 32 33 34 36 34 32 29 32
19 17 22 28 30 29 34 29 37 40 39 45 34 47 45 42 42 38 37 38 37 36 30 26 24 24 23 21 20 20 20 19 22 24 27 33 33 36 35 37 36 31 27 27
14 20 22 26 29 26 32 30 34 37 41 38 34 37 47 37 45 43 40 40 40 42 41 32 28 24 23 19 18 17 18 19 23 25 28 31 35 33 34 33 38 39 38 36
20 21 22 23 24 26 28 32 36 36 35 37 41 37 48 44 43 44 44 47 46 45 40 25 25 22 20 18 17 16 18 21 22 24 27 30 33 34 34 32 34 36 35 33
24 26 27 25 29 26 31 35 41 38 34 36 38 44 31 32 41 42 46 46 50 52 40 23 20 21 19 18 18 19 20 22 22 24 28 30 33 36 37 36 33 33 33 33
22 27 23 22 25 27 27 26 30 35 34 37 36 35 33 35 36 30 30 33 40 48 28 20 20 20 17 15 15 15 18 22 21 22 25 27 29 32 33 33 32 32 33 31
25 23 27 26 20 23 27 25 23 29 30 32 33 37 40 47 43 33 27 28 34 23 14 16 16 16 16 13 14 16 19 22 23 23 23 23 23 26 29 31 30 31 30 29
23 29 25 23 23 23 23 21 25 22 27 32 30 28 34 30 25 23 24 21 21 20 11 14 15 16 14 12 12 16 18 18 18 20 22 23 23 24 26 28 29 29 30 30
22 23 25 26 26 25 24 22 21 20 23 29 32 30 23 22 29 25 22 21 22 21 18 17 15 16 15 16 14 18 19 18 17 16 18 20 21 22 24 25 27 27 28 29
20 22 26 24 23 21 18 16 15 19 23 18 23 27 26 32 33 28 23 19 22 20 17 19 20 25 19 16 16 15 17 19 19 20 22 23 24 24 24 24 24 25 27 28
16 19 25 26 23 17 16 17 16 18 21 20 26 34 27 34 40 38 31 23 19 20 29 25 24 23 25 21 12 12 13 18 20 22 24 27 26 26 24 24 24 25 27 29
14 16 19 23 22 19 19 19 17 15 21 30 23 41 41 38 34 32 33 26 14 13 14 40 26 26 25 24 22 23 17 17 19 19 19 19 21 23 23 23 25 27 29 33
19 19 18 18 18 18 21 26 29 19 16 21 41 40 35 31 29 27 29 32 30 28 27 32 30 37 27 25 22 20 22 25 19 17 21 23 24 24 24 27 28 30 32 34
19 19 20 20 19 21 23 29 29 21 18 16 22 28 29 29 29 29 29 30 28 25 24 25 28 28 31 30 27 24 24 24 23 30 26 24 22 24 27 29 31 32 34 36
17 17 21 22 20 23 20 18 22 26 23 22 24 24 29 30 30 32 33 28 28 27 27 26 27 27 27 27 28 32 35 32 34 31 28 23 27 29 31 34 35 38 39 40
10 12 15 19 20 20 15 25 21 26 19 21 24 27 32 32 30 33 28 23 27 30 33 35 33 34 32 30 30 32 32 33 38 38 32 26 24 32 35 38 41 43 44 47
2 7 14 16 15 16 20 24 27 30 31 27 30 33 34 37 39 34 22 30 34 37 39 40 41 41 38 37 38 39 39 35 35 39 36 34 33 35 40 43 46 49 50 51
12 5 5 12 15 15 18 27 31 32 30 26 32 40 44 45 50 46 34 43 48 47 44 43 42 42 45 43 40 42 45 46 45 42 42 40 41 43 41 43 46 48 49 52
14 13 9 8 8 9 20 30 36 25 29 43 44 46 46 48 45 50 48 47 44 45 46 45 48 52 50 48 49 54 54 53 48 40 44 41 39 44 44 44 44 46 49 52
14 14 13 12 9 12 23 28 30 31 40 42 46 47 50 49 51 50 49 47 50 53 55 53 52 58 50 48 51 55 54 52 49 46 44 44 44 44 42 43 46 49 47 48
14 12 11 8 7 17 24 27 24 34 34 39 42 45 45 49 52 50 52 58 57 56 57 51 55 44 49 44 39 38 52 52 50 50 49 46 46 43 41 44 43 42 39 41
13 21 9 20 15 28 33 24 31 35 28 21 28 41 29 39 36 31 60 58 57 52 51 49 48 51 50 40 24 19 27 46 43 39 39 38 36 36 35 33 33 33 34 35
3 17 5 3 10 31 21 30 31 21 22 22 21 29 23 33 29 26 37 49 47 47 47 44 46 46 46 36 15 24 41 43 43 42 39 37 32 30 28 28 26 25 29 31
10 6 4 6 18 16 15 28 23 21 24 27 27 26 28 28 28 21 27 29 44 44 44 43 44 44 44 42 33 42 26 30 31 38 40 34 25 25 21 29 35 34 38 37
Wind_Direction
323 321 317 327 321 316 311 304 297 292 299 297 293 292 286 288 290 288 271 269 269 270 272 264 262 255 252 253 252 258 263 266 264 260 262 261 262 264 260 252 257 255 250 253
316 315 319 319 317 314 311 306 302 301 304 302 296 292 288 286 288 290 281 270 269 274 270 265 259 249 244 248 254 260 265 268 269 266 266 265 265 268 266 255 251 257 257 259
315 317 319 316 315 313 312 311 310 306 310 305 302 293 288 282 286 285 280 277 275 274 272 265 258 249 249 250 253 258 265 269 272 273 267 269 270 269 265 262 259 261 258 262
318 318 315 311 311 315 311 319 316 312 309 301 301 292 287 286 283 283 280 278 276 277 277 269 257 250 248 251 256 259 263 269 272 274 274 269 268 264 264 265 264 265 261 263
318 323 321 316 311 318 313 318 316 315 311 307 298 295 287 290 282 278 282 281 280 279 281 272 255 247 251 250 254 259 267 273 275 275 274 271 268 271 270 271 267 263 264 264
303 312 315 316 319 318 321 317 313 311 310 298 298 297 288 284 283 281 277 277 280 280 284 280 246 237 238 246 253 261 271 277 280 280 277 273 269 267 269 271 270 266 267 266
308 308 312 316 315 325 323 318 314 312 305 293 297 289 283 284 291 286 278 280 277 273 277 263 229 221 229 241 255 264 273 278 280 281 281 276 271 266 266 269 272 271 273 273
315 319 325 330 323 321 324 322 315 311 311 307 304 294 246 291 295 301 292 291 291 278 257 239 214 216 225 237 252 266 276 281 283 284 284 282 275 267 269 272 274 275 275 278
321 320 325 327 329 328 324 316 318 306 310 310 308 293 294 272 281 293 296 293 302 291 226 209 216 220 232 231 249 269 279 284 282 283 284 282 278 274 273 274 276 275 277 280
324 319 327 332 333 326 320 327 318 317 313 311 311 304 291 304 304 309 307 298 288 284 254 233 231 238 237 239 257 271 278 284 283 282 281 281 278 279 279 278 278 279 279 281
324 321 323 328 328 328 329 324 322 320 312 308 304 298 313 309 305 311 316 290 289 285 267 256 254 256 256 260 265 270 272 274 277 278 283 282 279 281 281 280 281 282 283 284
323 323 321 326 331 329 332 331 327 318 318 311 317 299 246 291 288 302 307 298 281 281 276 282 287 272 265 262 262 263 267 270 275 278 277 278 278 280 283 283 286 286 286 288
331 331 328 333 340 346 341 335 327 317 314 301 302 289 325 312 288 277 288 299 294 273 273 287 289 294 281 276 257 254 258 270 275 275 278 276 275 278 282 283 286 288 289 289
337 329 326 324 329 335 332 330 322 311 306 304 300 293 297 302 305 301 286 293 301 276 261 262 287 291 295 285 281 278 274 274 274 274 277 279 280 281 280 283 285 286 288 287
336 328 330 329 331 330 327 321 313 305 292 300 294 293 297 306 307 311 300 293 295 289 283 278 280 276 289 292 285 284 289 281 277 273 278 280 281 279 278 279 282 286 288 287
337 330 334 330 332 333 329 318 316 317 311 304 316 306 312 309 309 308 303 302 300 300 293 289 288 286 277 281 282 282 281 289 293 281 280 281 280 280 279 280 281 283 285 285
328 334 337 330 346 344 343 347 329 324 331 327 316 322 317 311 309 308 305 305 301 302 298 296 291 295 290 284 287 280 277 281 279 281 284 285 280 280 281 281 282 282 283 284
334 346 349 343 352 353 14 338 335 324 334 335 325 316 309 308 315 310 315 315 311 299 297 293 291 286 291 292 290 286 282 281 268 274 282 285 285 281 281 282 283 283 282 281
4 352 353 353 357 351 348 328 319 319 308 320 317 312 313 311 305 310 317 305 305 301 296 291 287 285 287 287 287 284 282 282 277 276 276 278 281 281 282 283 283 283 282 280
14 8 336 353 350 352 349 332 328 320 321 325 323 315 309 310 296 299 309 300 295 295 295 292 291 290 286 287 288 284 279 276 277 278 276 277 278 278 282 285 286 284 283 281
5 3 343 330 344 1 344 334 329 333 327 315 315 311 310 305 304 301 301 298 299 297 294 293 289 284 285 286 284 280 277 275 277 281 276 277 277 277 281 285 285 284 282 280
7 12 24 28 29 3 347 341 338 330 321 321 318 316 312 309 306 304 301 299 297 293 290 289 289 282 286 286 284 278 277 277 276 275 275 277 278 279 282 283 283 281 279 277
15 26 23 42 23 356 349 343 344 336 333 329 324 321 320 315 310 307 301 295 293 290 285 286 282 288 284 288 288 284 276 274 274 273 275 277 280 279 280 280 279 278 277 275
20 333 33 349 11 343 340 346 341 340 336 328 334 288 329 286 284 284 293 290 285 287 282 281 283 274 275 288 287 273 288 270 274 274 276 278 279 279 279 279 278 277 274 271
280 265 59 10 352 345 356 344 343 323 326 325 319 335 314 293 289 283 278 287 275 279 272 282 261 260 264 289 279 294 261 263 267 272 277 280 281 280 281 279 276 275 273 269
138 170 64 357 350 345 316 345 300 324 328 334 331 321 322 320 292 297 277 264 274 276 270 262 259 260 271 259 236 258 288 264 276 268 266 278 282 283 287 280 273 270 261 257